Dewpoint
3 2 3 3 3 2 2 1 1 -0 1 1 1 1 -0 -0 2 1 0 -3 -3 -2 -2 -1 3 6 6 5 5 5 7 6 2 -0 -1 -3 -6 -5 -4 -4 -3 -5 -3 -3 -3 -3 -3
2 2 3 3 2 2 2 1 1 0 0 -0 -1 -0 -3 -6 -5 -2 0 -1 -4 -8 -3 2 3 5 4 5 5 5 5 6 1 -0 -1 -2 -3 -3 -3 -3 -4 -3 -3 -4 -4 -4 -4
2 2 2 3 3 2 1 1 1 -2 -0 -3 -2 -0 -5 -8 -7 -8 -5 -7 -7 -13 -7 5 5 3 3 5 5 6 7 5 1 1 0 -0 -2 -3 -3 -3 -2 -3 -3 -5 -5 -4 -5
3 2 2 3 3 3 2 1 -0 -3 -4 -0 0 -1 -8 -7 2 4 3 3 -5 -0 -3 4 4 4 4 4 3 2 3 1 0 0 -0 -1 -2 -2 -3 -3 -4 -4 -4 -2 -4 -3 -3
2 3 2 2 3 3 2 2 -0 -2 -5 -7 -8 -8 -9 2 1 -0 0 3 4 4 2 4 4 3 3 4 4 2 2 1 1 -0 -1 -2 -2 -2 -3 -1 -2 -2 2 -3 -4 -3 -3
1 1 1 2 3 3 3 -1 1 -2 -4 -6 -10 -9 -6 3 3 4 3 4 3 3 3 2 2 2 3 3 3 3 2 1 1 0 -1 -2 -2 -2 -2 -1 1 -1 -0 -3 -5 -3 -3
-10 -0 -2 1 0 3 3 3 -1 -4 -3 -6 -10 -9 2 3 3 3 3 3 3 3 2 2 3 3 3 3 3 2 0 -1 -1 -2 -1 -1 -0 2 -0 -4 -5 -5 -5 -5 -5 -4 -1
-17 -5 -2 -2 -4 -3 2 2 2 0 -2 -2 -9 -10 -0 2 2 -0 1 3 3 3 3 3 3 3 2 2 2 0 1 -1 -1 0 -2 -1 0 -2 -3 -3 -3 -3 -2 -2 -1 -2 -1
-7 -17 -14 -5 -4 -10 -7 -1 -1 -1 -0 -2 -6 -13 -1 1 0 0 1 1 2 2 1 2 3 3 3 2 1 1 -0 -1 -2 -1 -2 -1 -0 -2 -2 -1 -1 -2 -1 -1 1 -0 -1
-1 -15 -15 -18 -6 -7 -8 -6 -3 -4 -2 -1 -3 -11 -4 -1 1 -0 0 0 -0 -1 3 2 1 2 2 2 1 1 2 1 -1 -1 -2 -1 -2 -2 -2 -1 -2 0 -1 -0 1 3 5
1 -4 -19 -15 -19 -7 -6 -9 -6 -4 -3 -1 -1 -7 -6 -3 -1 1 -1 -1 -3 -1 3 1 2 1 1 0 1 1 1 1 0 0 1 -0 1 1 1 1 -1 1 0 1 2 3 5
1 -0 -12 -16 -14 -13 -6 -8 -8 -6 -4 -2 -1 -2 -5 -3 -1 -1 -2 -2 -1 6 4 3 2 2 2 1 1 1 1 1 0 1 0 -0 -2 -1 0 -1 -0 -1 2 2 2 3 6
-2 1 -5 -17 -13 -8 -8 -6 -10 -8 -6 -2 -1 -1 -3 -2 0 -2 -3 0 6 4 1 2 2 -0 -1 0 0 0 0 1 2 6 5 3 2 0 -1 2 1 2 4 6 8 8 7
-8 -0 -1 -15 -13 -6 -4 -5 -7 -8 -8 -5 -1 -1 -1 -2 -3 -2 -1 2 3 1 1 0 1 1 2 2 1 1 1 3 2 1 3 5 6 2 1 2 4 4 5 7 8 7 5
-9 -4 0 -11 -12 -5 -4 -4 -8 -7 -7 -3 -2 -1 -1 -1 -2 -1 2 5 3 1 0 1 1 0 2 2 2 2 2 3 2 1 3 5 4 1 1 1 2 6 7 5 7 5 7
-3 -8 -1 -5 -12 -5 -6 -8 -8 -8 -8 -4 -4 -3 -1 -1 -0 2 4 4 2 1 1 1 3 2 2 1 2 2 2 2 3 2 1 2 5 1 3 3 3 4 5 8 7 8 8
1 -5 -2 -1 -13 -6 -6 -9 -8 -7 -7 -6 -6 2 -2 -2 1 2 6 3 1 1 1 1 1 1 1 2 2 2 2 2 2 3 2 3 4 3 2 5 4 6 6 6 6 5 7
5 -1 -3 0 -11 -7 -6 -8 -8 -7 -6 -6 -3 5 -3 -2 4 2 3 1 1 1 1 1 1 -1 0 2 2 2 2 1 1 2 3 2 3 5 3 -0 1 1 4 5 6 7 4
6 1 -1 -1 -5 -10 -6 -7 -7 -8 -7 -6 0 1 -4 -3 5 3 1 1 1 1 1 1 1 -0 -0 0 2 1 0 1 1 2 2 1 3 5 3 1 0 2 4 4 3 4 5
6 5 1 -1 -0 -11 -7 -6 -6 -7 -8 -7 -1 5 1 1 1 0 1 1 2 1 0 0 -0 -1 -1 -1 -2 -0 -2 -1 -0 1 1 1 2 2 3 -0 -0 1 -0 3 3 6 5
6 6 3 1 0 -7 -8 -6 -6 -7 -7 -7 -2 2 -0 4 1 0 0 1 1 1 1 0 -0 -0 -1 -2 -2 -2 -2 -2 -1 -1 1 1 3 2 1 -1 -2 -1 0 -1 4 4 5
5 5 5 3 0 -1 -10 -6 -5 -6 -6 -6 0 1 0 0 -0 -0 0 1 1 -0 1 -1 0 -1 -1 -1 -1 -1 -0 -2 -3 -2 -2 -1 2 0 2 -2 -1 0 -1 -1 -1 1 3
5 5 5 4 1 0 -8 -8 -5 -5 -7 -7 -5 -3 0 0 -0 -0 -1 -1 -0 0 1 1 0 0 -1 0 1 -0 -0 -1 -0 -0 -1 -1 0 1 1 -2 -3 -3 -4 -4 -3 -1 1
6 5 5 5 1 0 -4 -9 -6 -4 -4 -5 -6 -6 -2 -1 -1 -2 -2 -1 -1 -0 1 0 1 0 0 0 -0 -1 0 -0 0 0 0 0 -0 0 4 0 1 -3 -3 -3 -5 -3 -2
6 6 5 5 4 -0 -0 -8 -7 -4 -3 -4 -5 -5 -2 -4 -4 -3 -2 -2 -1 -1 -0 -1 -1 0 0 -0 -2 -4 -4 -3 -2 -1 -0 -0 0 1 2 -1 -5 -9 -7 -2 -1 -3 -3
6 5 5 5 5 2 0 -4 -8 -5 -4 -3 -3 -4 -4 -3 -5 -3 -2 -2 -2 -2 -2 -1 0 -0 1 -1 -2 -2 -6 -5 -5 -3 -3 -1 -1 1 -1 -0 -6 -6 -4 -4 -4 -3 -5
5 5 5 5 5 5 0 0 -7 -7 -4 -3 -2 -2 -3 -2 -3 -4 -3 -2 -2 -1 -2 -2 -1 1 1 -1 -1 -3 -4 -4 -4 -4 -1 -0 -1 1 0 1 -3 -6 -4 -4 -2 -3 -4
5 5 5 5 5 5 4 1 -0 -7 -6 -3 -3 -2 -2 -1 -2 -3 -4 -2 -1 -0 -2 -1 -1 -0 0 0 -2 -3 -2 -4 -2 -5 -4 -4 -4 -1 -3 -2 0 -6 -4 -3 -4 -4 -4
5 5 5 5 5 5 5 3 2 -1 -7 -5 -3 -2 -1 -1 -2 -3 -3 -4 -4 -1 -0 -1 -1 0 -0 2 -0 -1 -1 -2 -3 -5 -4 -3 -6 -7 -6 -5 -5 -5 -5 -4 -4 -3 -4
Wind_Speed
25 24 27 30 31 29 27 24 25 26 23 22 22 20 19 14 6 4 3 3 2 4 8 11 20 16 19 14 4 12 15 17 12 12 11 8 11 7 7 7 7 5 4 3 6 7 11
24 24 28 30 32 32 28 22 23 24 24 22 20 17 15 15 11 5 2 2 1 3 10 12 18 16 16 7 7 9 13 25 12 11 9 7 5 3 7 5 4 2 3 6 5 8 9
25 25 26 29 32 33 31 23 24 24 25 23 20 16 11 10 12 8 5 2 2 3 11 15 20 12 19 7 9 11 17 20 15 10 9 7 9 1 8 6 3 2 4 5 8 4 3
25 25 25 27 30 33 31 28 26 26 26 23 17 17 11 13 12 9 5 6 8 12 16 17 17 18 12 21 24 28 19 19 13 12 12 11 9 9 4 8 3 2 2 3 6 4 2
26 26 25 25 27 29 31 28 25 25 25 21 20 18 15 18 20 22 23 19 18 16 15 18 19 15 4 11 14 20 21 16 16 11 11 9 7 5 5 3 3 3 2 5 3 3 1
26 26 26 25 25 27 28 29 25 26 24 20 18 18 17 17 23 27 29 31 25 24 24 25 21 11 7 10 15 17 16 9 11 10 8 4 3 3 3 4 1 5 2 4 6 5 5
31 27 27 26 23 25 25 27 29 28 24 20 19 17 17 24 24 18 10 9 8 19 39 20 22 22 18 18 15 12 10 9 7 3 2 3 5 4 4 1 2 1 4 6 6 4 7
32 29 28 26 24 22 23 24 26 28 24 19 17 14 11 15 11 7 3 10 11 10 16 27 22 23 16 11 7 7 4 3 3 5 3 4 4 4 3 2 0 1 4 5 2 1 8
32 31 30 28 25 22 21 21 22 23 24 19 13 15 9 10 5 16 25 21 15 10 7 14 14 11 8 6 6 8 8 4 7 5 2 1 7 6 3 3 2 4 5 6 5 13 10
31 31 30 30 26 25 22 20 21 18 19 19 15 11 13 10 10 15 13 10 6 6 4 10 9 9 8 2 5 5 7 4 3 4 2 4 4 4 3 2 3 5 4 4 7 10 4
30 30 30 30 28 24 23 19 18 17 15 15 14 10 10 6 11 5 4 7 9 2 4 9 6 6 7 7 3 3 5 4 5 3 3 3 4 5 4 1 4 4 3 7 7 7 8
30 29 30 31 29 24 23 20 15 14 13 12 9 6 9 11 10 11 2 13 2 0 6 5 5 3 3 6 3 1 2 1 1 1 2 1 1 4 4 2 5 7 7 8 4 3 4
29 29 29 30 30 25 23 21 14 11 10 11 11 6 4 8 6 8 9 4 2 6 2 3 3 3 8 5 4 3 2 3 2 1 3 4 5 3 5 2 2 2 4 1 3 4 3
26 29 28 29 31 28 24 20 15 11 7 4 13 11 8 3 5 0 5 1 11 5 6 1 2 0 4 5 3 4 3 4 4 2 2 1 3 6 8 3 2 4 2 3 4 3 6
27 27 29 29 31 30 24 17 14 12 7 11 9 13 14 7 4 6 1 7 3 3 3 2 2 3 3 3 4 2 2 1 1 1 3 3 2 2 3 1 2 4 3 2 3 5 4
25 25 29 30 30 29 24 18 15 12 5 8 6 7 15 11 9 9 6 6 4 2 1 2 4 4 4 4 2 3 2 3 2 0 2 4 3 2 4 2 5 2 3 3 3 3 4
23 25 26 28 28 27 21 17 16 13 6 2 5 3 8 10 11 9 4 5 4 2 2 1 4 4 5 3 3 4 5 4 1 5 3 3 2 2 3 7 4 4 3 2 2 4 3
22 23 25 26 27 26 22 17 15 13 6 4 5 2 8 10 4 3 4 3 1 1 2 1 1 2 4 4 3 2 3 3 1 2 3 1 3 4 6 2 2 2 1 2 4 3 6
22 20 23 24 24 24 22 18 16 14 9 4 3 3 7 8 3 4 3 3 2 2 1 2 2 2 2 0 1 2 3 2 2 1 4 2 2 4 3 4 6 6 8 5 8 2 8
20 19 20 22 22 22 21 19 17 14 12 4 2 2 5 6 4 3 1 2 0 1 1 3 2 4 4 3 2 1 2 3 3 5 3 3 6 8 8 9 4 7 7 10 9 4 6
19 17 17 19 20 20 20 18 17 14 12 2 3 2 1 1 2 4 2 1 2 1 3 2 2 5 5 3 3 3 3 4 7 6 5 4 5 7 14 17 16 16 15 12 14 17 7
18 16 17 16 18 18 18 17 16 15 10 8 2 1 1 1 0 2 2 3 2 2 2 1 4 4 5 6 8 10 7 5 4 5 4 3 4 8 7 6 8 14 17 17 17 17 18
18 17 16 15 16 16 16 15 14 13 12 6 5 3 1 2 1 3 1 1 3 1 3 1 3 5 6 3 9 14 15 17 14 7 5 4 5 6 5 4 12 13 19 20 15 12 15
17 18 17 14 14 14 14 13 12 11 12 9 6 2 2 2 5 3 1 3 5 5 3 4 3 3 1 10 17 13 11 14 14 13 12 7 7 4 6 10 4 3 3 7 16 12 13
16 16 17 15 13 13 13 11 11 10 9 9 7 3 1 3 4 6 8 6 6 8 7 10 9 6 8 8 4 6 4 4 4 7 9 10 5 4 4 7 17 12 2 3 3 9 7
15 15 14 15 14 12 12 11 9 9 8 8 8 6 1 3 2 4 4 7 6 7 5 6 5 7 3 3 3 3 4 2 2 4 2 6 8 4 3 4 5 3 3 1 1 4 6
16 15 13 13 13 14 11 11 10 9 8 7 6 7 4 4 5 5 5 4 4 3 4 2 3 3 4 3 5 4 5 1 4 3 5 4 6 11 10 8 9 5 5 2 3 3 6
17 15 13 12 12 13 13 11 11 10 8 8 7 7 6 5 12 12 12 9 5 5 4 2 2 4 3 4 3 3 3 2 4 6 3 7 5 5 5 5 9 10 5 5 2 2 6
17 17 16 14 12 12 14 13 11 11 11 9 9 8 10 9 11 16 17 17 18 13 4 4 4 2 2 3 2 2 4 3 5 5 4 5 9 3 8 5 5 9 9 4 5 10 16
Wind_Direction
7 9 8 4 2 357 356 358 360 3 8 8 6 18 31 15 41 64 68 53 103 156 164 150 172 157 165 107 94 175 166 152 170 145 150 160 166 158 156 142 160 226 177 236 262 280 285
11 13 13 10 4 9 8 6 6 7 8 7 13 18 32 35 3 7 337 299 185 163 145 148 160 161 132 83 127 137 180 149 145 139 136 137 155 133 108 129 226 109 219 253 267 272 277
13 15 14 14 6 12 15 13 11 14 15 14 14 15 41 22 23 8 10 305 218 125 150 148 150 161 82 78 115 146 155 146 133 129 121 110 123 146 126 132 124 119 281 237 241 260 259
11 15 14 19 10 12 15 18 18 19 12 21 22 25 37 32 46 40 27 89 91 101 135 125 139 132 83 94 99 101 103 109 109 110 112 102 106 97 92 113 122 224 253 247 127 165 107
12 10 14 20 16 13 13 23 24 23 21 37 33 39 47 62 69 69 80 80 76 105 131 122 109 122 48 99 94 96 97 105 99 99 101 103 99 90 128 174 176 206 255 246 183 159 299
14 14 13 18 18 15 17 22 24 27 24 37 47 54 69 90 97 95 77 70 82 97 93 97 91 92 46 80 90 110 96 94 106 113 99 92 103 135 167 192 241 149 209 234 251 146 243
17 13 14 14 17 18 20 18 26 32 25 39 56 68 98 116 111 94 67 19 54 57 66 78 83 83 94 95 87 81 89 92 111 138 122 164 209 157 164 86 26 67 272 272 277 331 304
16 17 16 14 17 22 18 23 25 32 30 31 62 76 104 123 105 25 72 85 83 108 60 62 75 78 86 85 82 76 44 145 179 101 148 189 117 83 114 118 347 267 287 293 349 122 300
15 15 18 15 14 16 21 20 21 28 32 28 50 91 110 124 61 103 105 101 96 87 79 44 45 47 30 59 79 53 47 68 72 108 50 65 89 130 150 160 236 241 281 324 318 326 276
14 16 15 19 12 14 18 22 20 23 31 36 40 94 117 102 98 108 100 98 57 21 83 15 18 27 15 39 65 28 26 22 76 77 66 67 130 168 202 247 260 287 44 321 326 359 327
15 14 13 17 15 10 17 26 26 27 35 37 48 76 129 123 145 134 130 0 344 74 60 347 3 354 16 57 109 47 7 21 68 64 258 95 162 187 226 286 208 21 322 306 307 302 306
14 11 13 11 16 13 13 24 30 28 28 29 35 67 123 139 170 171 246 327 35 332 57 6 349 359 7 67 71 63 5 321 290 287 193 138 197 264 277 310 231 323 321 294 255 252 255
11 14 9 11 12 15 14 12 25 33 32 29 25 50 131 144 181 196 304 353 32 51 177 9 16 355 69 67 89 37 33 90 64 62 39 300 200 199 225 223 132 237 285 179 216 202 273
12 10 12 8 10 8 9 7 13 21 44 32 31 33 51 88 158 323 25 39 58 41 61 56 328 295 48 345 70 37 31 50 67 75 77 38 144 187 166 284 13 184 324 329 291 295 316
12 9 10 9 11 10 11 18 17 19 77 66 51 40 37 33 60 84 70 59 98 15 13 341 248 7 67 49 328 311 34 23 13 272 25 355 99 124 210 289 294 154 211 354 276 243 264
11 9 9 10 11 16 20 31 23 21 70 113 55 21 30 40 50 61 61 92 108 143 335 312 4 25 34 35 342 12 26 81 70 56 294 21 290 141 116 202 231 278 75 223 190 274 273
9 9 10 9 11 13 18 23 22 23 32 84 55 22 4 14 47 46 56 77 109 155 213 284 28 22 44 35 13 10 26 109 112 157 233 301 282 137 184 206 213 172 190 228 298 262 291
3 11 5 11 9 10 15 15 20 19 17 35 42 24 352 11 34 54 51 30 28 123 195 188 277 352 16 4 344 356 2 28 82 201 291 76 322 272 244 90 227 193 269 230 258 178 245
359 8 4 8 10 10 9 14 15 17 18 44 38 357 357 21 63 67 104 90 336 220 239 209 205 244 201 267 255 355 345 52 152 239 346 96 232 294 196 168 205 237 181 200 258 287 254
357 0 6 3 10 8 9 9 15 23 17 57 55 355 2 52 74 86 107 120 164 218 260 284 286 243 221 220 202 245 268 183 233 217 261 214 256 257 281 312 303 268 218 195 212 218 262
348 355 359 1 5 7 7 11 12 20 27 29 70 85 107 340 67 109 341 316 191 273 237 287 246 290 302 275 242 250 244 236 198 200 199 235 263 252 262 270 270 262 256 236 219 237 267
338 350 353 359 356 5 6 11 13 23 23 47 36 143 45 94 104 258 176 141 302 356 284 95 299 342 312 312 339 334 331 288 301 196 256 216 280 296 281 227 250 247 242 241 242 241 249
330 339 350 352 352 356 4 8 15 26 32 46 47 79 95 199 223 258 269 203 143 182 167 280 316 307 277 329 317 296 286 277 279 289 301 285 311 325 271 327 305 269 238 231 228 224 227
326 332 340 348 345 346 357 4 10 21 31 31 42 53 291 161 230 234 237 262 243 209 243 264 253 264 229 305 294 265 256 256 251 246 238 284 296 289 292 309 257 30 49 300 224 229 232
318 327 334 345 341 336 341 355 1 10 17 23 21 53 114 282 254 230 226 230 247 247 254 255 246 245 298 311 299 310 213 227 200 220 225 219 270 278 278 304 285 297 22 332 240 287 261
302 311 324 336 342 330 328 338 347 352 360 13 13 13 329 285 221 265 223 228 243 238 240 239 260 261 283 272 255 254 260 341 245 179 188 190 227 251 300 283 282 67 94 79 305 255 22
287 296 307 321 328 329 318 323 329 334 336 348 349 354 337 277 244 195 231 246 211 228 268 244 213 221 206 237 247 249 251 49 257 241 173 194 216 229 242 258 273 93 137 173 237 74 19
277 281 291 305 312 316 316 308 316 318 317 322 320 314 330 282 271 250 236 212 225 229 254 81 250 194 205 236 254 245 266 227 280 251 219 208 211 203 212 235 259 153 147 224 74 192 339
267 274 284 289 296 302 307 303 300 305 308 307 304 304 302 279 266 276 262 244 232 217 249 225 312 300 268 254 264 302 238 224 270 273 191 245 219 275 214 220 99 187 244 230 289 292 307
Height
1523 1518 1514 1509 1504 1496 1490 1484 1478 1473 1468 1464 1460 1455 1451 1449 1447 1447 1447 1449 1449 1449 1450 1453 1455 1456 1462 1464 1471 1472 1474 1477 1481 1484 1487 1489 1490 1490 1489 1493 1500 1498 1501 1503 1503 1505 1505
1523 1519 1516 1510 1504 1497 1490 1484 1479 1474 1470 1466 1463 1459 1456 1452 1451 1450 1450 1451 1450 1450 1452 1454 1456 1459 1460 1470 1472 1472 1474 1476 1482 1485 1488 1490 1492 1493 1495 1497 1498 1501 1503 1502 1502 1504 1503
1524 1521 1516 1512 1506 1499 1491 1485 1480 1476 1472 1468 1465 1462 1459 1455 1454 1453 1452 1451 1451 1452 1454 1456 1459 1462 1464 1472 1471 1475 1476 1478 1484 1488 1488 1490 1493 1496 1498 1500 1504 1504 1502 1499 1500 1502 1503
1526 1522 1518 1514 1509 1502 1494 1490 1484 1479 1474 1470 1467 1464 1462 1459 1457 1456 1453 1454 1453 1454 1457 1459 1462 1465 1471 1476 1475 1477 1481 1484 1487 1490 1492 1494 1496 1497 1499 1503 1504 1501 1502 1494 1498 1503 1503
1528 1524 1519 1515 1511 1504 1498 1493 1487 1482 1477 1472 1470 1467 1465 1465 1462 1461 1459 1458 1454 1457 1459 1461 1466 1470 1477 1481 1481 1484 1485 1488 1490 1493 1495 1496 1498 1501 1503 1500 1498 1500 1494 1494 1493 1502 1503
1529 1525 1520 1516 1512 1506 1502 1495 1491 1486 1481 1476 1472 1470 1468 1469 1468 1467 1466 1465 1463 1463 1465 1468 1471 1478 1483 1486 1486 1488 1489 1493 1494 1496 1498 1499 1500 1499 1501 1500 1489 1487 1498 1498 1494 1498 1502
1531 1526 1522 1517 1512 1509 1505 1500 1494 1489 1486 1480 1476 1474 1471 1472 1472 1472 1471 1469 1473 1474 1473 1479 1483 1484 1488 1491 1492 1495 1496 1496 1497 1497 1494 1500 1496 1495 1501 1501 1500 1499 1498 1496 1492 1494 1500
1533 1528 1523 1518 1514 1510 1507 1502 1498 1492 1489 1485 1480 1478 1476 1477 1477 1476 1474 1475 1476 1482 1484 1488 1489 1491 1494 1496 1498 1499 1499 1499 1496 1495 1499 1499 1492 1502 1506 1506 1503 1502 1499 1491 1492 1497 1497
1535 1530 1524 1520 1515 1512 1508 1505 1501 1496 1491 1488 1484 1481 1482 1482 1481 1480 1480 1481 1481 1482 1486 1495 1497 1497 1498 1500 1500 1501 1501 1500 1496 1497 1497 1491 1503 1506 1504 1505 1502 1497 1497 1495 1500 1495 1483
1537 1532 1526 1522 1517 1513 1510 1505 1502 1498 1495 1492 1489 1486 1484 1485 1487 1485 1486 1485 1484 1484 1487 1505 1501 1503 1504 1502 1503 1504 1503 1503 1500 1500 1500 1500 1506 1505 1505 1503 1503 1495 1498 1500 1498 1501 1497
1540 1534 1528 1523 1518 1514 1511 1506 1502 1500 1498 1495 1492 1490 1489 1488 1488 1488 1488 1486 1484 1485 1483 1510 1508 1506 1505 1503 1507 1506 1505 1503 1503 1503 1504 1503 1504 1505 1502 1500 1502 1497 1500 1499 1500 1505 1508
1541 1536 1529 1524 1519 1514 1511 1508 1504 1500 1498 1496 1494 1491 1489 1490 1490 1490 1488 1487 1486 1488 1507 1511 1512 1510 1507 1505 1506 1507 1506 1507 1506 1503 1502 1501 1505 1504 1500 1502 1502 1500 1499 1495 1498 1501 1502
1543 1537 1531 1525 1521 1515 1511 1509 1505 1501 1499 1496 1494 1493 1491 1490 1492 1491 1489 1487 1489 1497 1518 1513 1510 1507 1502 1503 1504 1504 1504 1501 1503 1505 1507 1502 1500 1502 1504 1501 1501 1503 1504 1495 1496 1499 1478
1544 1538 1533 1527 1521 1517 1511 1508 1506 1502 1499 1497 1496 1494 1493 1492 1490 1490 1489 1488 1496 1510 1507 1511 1509 1505 1503 1506 1504 1504 1502 1502 1505 1504 1504 1504 1500 1497 1499 1497 1496 1504 1503 1500 1494 1478 1470
1545 1540 1534 1529 1522 1517 1511 1507 1506 1503 1500 1499 1499 1497 1495 1493 1492 1490 1492 1499 1516 1510 1510 1508 1507 1500 1503 1505 1505 1501 1502 1504 1506 1507 1503 1498 1492 1495 1497 1498 1500 1503 1503 1503 1505 1485 1489
1545 1541 1536 1530 1524 1519 1514 1510 1507 1504 1502 1500 1501 1500 1499 1497 1495 1492 1497 1506 1510 1513 1512 1511 1507 1504 1503 1503 1503 1504 1498 1501 1504 1507 1507 1503 1501 1493 1497 1500 1500 1500 1505 1502 1504 1490 1475
1546 1541 1537 1532 1527 1521 1517 1512 1509 1506 1505 1503 1502 1504 1502 1500 1498 1500 1505 1509 1511 1514 1513 1510 1505 1502 1502 1502 1504 1501 1499 1503 1504 1507 1509 1507 1503 1494 1495 1493 1487 1501 1501 1506 1503 1493 1481
1548 1542 1538 1534 1529 1524 1519 1515 1510 1508 1506 1506 1504 1508 1505 1503 1504 1504 1508 1512 1514 1513 1514 1512 1510 1506 1503 1503 1500 1500 1500 1501 1504 1505 1503 1503 1500 1499 1485 1482 1485 1489 1494 1500 1493 1487 1480
1547 1544 1539 1535 1530 1525 1521 1516 1512 1509 1507 1506 1509 1508 1506 1504 1506 1508 1513 1514 1515 1513 1513 1510 1508 1507 1504 1502 1501 1500 1500 1503 1503 1504 1501 1502 1499 1494 1480 1484 1485 1487 1491 1498 1495 1494 1483
1548 1544 1540 1536 1532 1527 1522 1518 1514 1511 1509 1509 1511 1512 1510 1508 1509 1508 1511 1512 1512 1513 1512 1512 1509 1508 1505 1502 1501 1498 1497 1500 1502 1502 1503 1504 1494 1493 1487 1476 1479 1481 1479 1488 1491 1488 1467
1547 1544 1541 1537 1533 1528 1523 1520 1516 1512 1510 1511 1510 1514 1514 1512 1513 1511 1513 1513 1510 1510 1513 1512 1508 1508 1506 1501 1500 1497 1498 1497 1499 1499 1501 1499 1492 1486 1482 1476 1474 1472 1473 1472 1480 1477 1470
1545 1543 1540 1537 1533 1530 1526 1521 1518 1514 1512 1512 1514 1514 1515 1515 1516 1515 1513 1509 1512 1511 1513 1509 1511 1509 1509 1505 1505 1503 1503 1499 1496 1500 1498 1497 1492 1486 1483 1468 1468 1465 1461 1462 1462 1462 1461
1544 1542 1540 1537 1534 1530 1527 1523 1520 1517 1514 1514 1514 1515 1515 1516 1515 1514 1509 1511 1511 1513 1512 1512 1512 1510 1505 1508 1509 1506 1505 1503 1502 1501 1498 1498 1493 1488 1475 1469 1465 1457 1443 1447 1448 1448 1448
1543 1540 1539 1537 1534 1531 1528 1525 1522 1519 1517 1517 1515 1516 1516 1510 1513 1511 1513 1514 1513 1512 1511 1510 1510 1509 1507 1506 1502 1499 1497 1497 1497 1496 1499 1496 1495 1494 1486 1473 1467 1443 1446 1446 1440 1442 1443
1541 1540 1537 1536 1534 1532 1529 1526 1523 1521 1519 1518 1516 1515 1516 1512 1511 1511 1512 1512 1513 1512 1512 1508 1506 1506 1504 1503 1496 1488 1481 1487 1486 1490 1493 1496 1495 1490 1487 1474 1452 1437 1451 1451 1451 1443 1441
1539 1537 1536 1534 1533 1531 1529 1527 1524 1522 1519 1518 1518 1516 1515 1515 1510 1511 1509 1509 1507 1506 1508 1506 1506 1504 1505 1501 1497 1491 1482 1479 1478 1484 1492 1491 1493 1494 1478 1480 1462 1448 1450 1451 1451 1445 1446
1535 1534 1533 1532 1531 1530 1528 1526 1524 1522 1520 1518 1518 1516 1516 1514 1507 1508 1510 1507 1507 1506 1504 1503 1503 1504 1504 1497 1494 1488 1481 1485 1480 1477 1481 1485 1486 1484 1479 1475 1454 1446 1450 1451 1450 1449 1447
1532 1530 1529 1528 1528 1528 1527 1525 1523 1522 1520 1518 1517 1516 1515 1513 1506 1502 1502 1504 1505 1506 1501 1503 1503 1501 1502 1499 1492 1485 1487 1480 1483 1470 1469 1468 1469 1472 1469 1466 1460 1446 1450 1448 1442 1444 1445
1527 1528 1525 1524 1523 1524 1524 1523 1522 1520 1519 1516 1516 1515 1513 1511 1505 1501 1498 1497 1498 1500 1502 1501 1501 1500 1497 1497 1494 1490 1486 1482 1477 1471 1470 1470 1458 1450 1451 1439 1440 1442 1440 1441 1442 1443 1442